KC9Q Weather Reports


Display with metric or nautical units.
time (UTC)temp
F
wind
direction
speed
MPH
gust
MPH
rain 1hr
in
rain 24hr
in
rain mn
in
humidity
%
barometer
mb
20260504130637 65 231 6.0 11.0 0.00 0.00 0.00 66 1011.1
20260504130134 65 204 5.0 7.0 0.00 0.00 0.00 66 1011.0
20260504110525 62 191 5.0 5.0 0.00 0.00 0.00 65 1010.4
20260504100442 64 212 5.0 6.0 0.00 0.00 0.00 61 1010.3
20260504081841 64 198 4.0 9.0 0.00 0.00 0.00 59 1010.1
20260504081337 64 212 5.0 8.0 0.00 0.00 0.00 59 1010.2
20260504080833 64 203 4.0 9.0 0.00 0.00 0.00 59 1010.3
20260504080331 64 222 8.0 10.0 0.00 0.00 0.00 59 1010.4
20260504070258 66 196 9.0 15.0 0.00 0.00 0.00 56 1010.4
20260504060218 64 196 6.0 9.0 0.00 0.00 0.00 57 1011.3
20260504050646 62 216 7.0 7.0 0.00 0.00 0.00 58 1011.9
20260504050143 62 193 4.0 6.0 0.00 0.00 0.00 58 1012.0
20260504045640 62 199 6.0 7.0 0.00 0.00 0.00 58 1012.0
20260504045140 62 180 4.0 6.0 0.00 0.00 0.00 57 1011.9
20260504044638 62 194 6.0 7.0 0.00 0.00 0.00 57 1012.0
20260504044135 62 180 5.0 9.0 0.00 0.00 0.00 57 1011.8
20260504043632 63 187 7.0 9.0 0.00 0.00 0.00 56 1011.8
20260504043129 62 190 6.0 8.0 0.00 0.00 0.00 56 1012.1
20260504042626 63 203 5.0 8.0 0.00 0.00 0.00 55 1012.0
20260504042123 62 184 4.0 9.0 0.00 0.00 0.00 55 1011.8
20260504041619 62 184 5.0 7.0 0.00 0.00 0.00 55 1011.9
20260504041115 63 188 6.0 8.0 0.00 0.00 0.00 54 1011.9
20260504040613 63 182 6.0 8.0 0.00 0.00 0.00 54 1011.9
20260504040109 63 179 6.0 8.0 0.00 0.00 0.00 53 1012.0
20260504035606 63 199 4.0 7.0 0.00 0.00 0.00 53 1012.1
20260504035102 63 193 5.0 7.0 0.00 0.00 0.00 53 1012.0
20260504034600 63 200 6.0 9.0 0.00 0.00 0.00 53 1012.0
20260504034057 63 200 6.0 7.0 0.00 0.00 0.00 53 1012.2
20260504033555 63 174 5.0 7.0 0.00 0.00 0.00 52 1012.3
20260504033052 63 209 4.0 6.0 0.00 0.00 0.00 52 1012.5
20260504032549 63 171 5.0 5.0 0.00 0.00 0.00 51 1012.4
20260504032046 63 179 5.0 6.0 0.00 0.00 0.00 51 1012.4
20260504031543 63 184 5.0 7.0 0.00 0.00 0.00 50 1012.4
20260504031039 63 184 6.0 7.0 0.00 0.00 0.00 50 1012.4
20260504030536 63 189 4.0 7.0 0.00 0.00 0.00 50 1012.4
20260504030032 63 177 5.0 5.0 0.00 0.00 0.00 50 1012.5
20260504025530 63 185 3.0 7.0 0.00 0.00 0.00 50 1012.4
20260504025026 63 180 3.0 7.0 0.00 0.00 0.00 50 1012.5
20260504024523 64 182 3.0 6.0 0.00 0.00 0.00 49 1012.6
20260504024020 64 174 4.0 6.0 0.00 0.00 0.00 49 1012.6
20260504023517 64 186 4.0 5.0 0.00 0.00 0.00 49 1012.5
20260504023013 64 178 5.0 7.0 0.00 0.00 0.00 48 1012.6
20260504022508 64 197 4.0 6.0 0.00 0.00 0.00 48 1012.4
20260504022005 65 193 4.0 6.0 0.00 0.00 0.00 48 1012.3
20260504021503 65 182 5.0 6.0 0.00 0.00 0.00 47 1012.4
20260504021000 65 210 4.0 6.0 0.00 0.00 0.00 47 1012.4
20260504020456 65 187 4.0 8.0 0.00 0.00 0.00 46 1012.3
20260504015953 65 185 5.0 7.0 0.00 0.00 0.00 45 1012.2
20260504015449 65 192 7.0 7.0 0.00 0.00 0.00 45 1012.3
20260504014945 66 181 6.0 6.0 0.00 0.00 0.00 45 1012.1
20260504014441 66 179 5.0 7.0 0.00 0.00 0.00 44 1012.0
20260504013938 66 198 4.0 7.0 0.00 0.00 0.00 44 1012.2
20260504013437 66 200 5.0 8.0 0.00 0.00 0.00 44 1012.3
20260504012932 66 183 4.0 6.0 0.00 0.00 0.00 44 1012.2
20260504012431 66 196 5.0 6.0 0.00 0.00 0.00 44 1012.2
20260504011928 66 198 4.0 6.0 0.00 0.00 0.00 43 1012.1
20260504011425 67 177 7.0 7.0 0.00 0.00 0.00 43 1012.0
20260504010920 67 189 6.0 9.0 0.00 0.00 0.00 42 1012.0
20260504010417 67 202 6.0 6.0 0.00 0.00 0.00 41 1012.3
20260504005913 68 207 5.0 6.0 0.00 0.00 0.00 41 1012.1
20260504005410 68 179 4.0 7.0 0.00 0.00 0.00 40 1012.3
20260504004908 68 217 4.0 7.0 0.00 0.00 0.00 39 1012.2
20260504004405 69 227 7.0 7.0 0.00 0.00 0.00 39 1012.4
20260504003901 69 195 4.0 6.0 0.00 0.00 0.00 39 1012.4
20260504003358 69 210 3.0 6.0 0.00 0.00 0.00 37 1012.5
20260504002855 69 201 4.0 7.0 0.00 0.00 0.00 36 1012.5
20260504002351 70 221 8.0 10.0 0.00 0.00 0.00 36 1012.3
20260504001849 70 219 6.0 7.0 0.00 0.00 0.00 35 1012.6
20260504001346 70 198 6.0 7.0 0.00 0.00 0.00 35 1012.5
20260504000843 71 209 12.0 15.0 0.00 0.00 0.00 34 1012.4
20260504000340 71 207 8.0 11.0 0.00 0.00 0.00 34 1012.3
20260503235838 71 214 7.0 11.0 0.00 0.00 0.00 34 1012.3
20260503235335 71 209 7.0 11.0 0.00 0.00 0.00 32 1012.4
20260503234832 71 224 9.0 11.0 0.00 0.00 0.00 32 1012.4
20260503234330 71 196 8.0 11.0 0.00 0.00 0.00 32 1012.4
20260503233828 71 198 7.0 12.0 0.00 0.00 0.00 34 1012.4
20260503233323 71 218 6.0 13.0 0.00 0.00 0.00 34 1012.6
20260503232820 71 206 8.0 11.0 0.00 0.00 0.00 34 1012.6
20260503232318 71 191 9.0 11.0 0.00 0.00 0.00 34 1012.6
20260503231815 71 204 7.0 10.0 0.00 0.00 0.00 35 1012.6
20260503231312 71 201 7.0 10.0 0.00 0.00 0.00 34 1012.7
20260503230808 72 172 13.0 13.0 0.00 0.00 0.00 33 1012.7
20260503230305 72 219 12.0 14.0 0.00 0.00 0.00 33 1012.7
20260503225803 71 228 8.0 12.0 0.00 0.00 0.00 34 1012.8
20260503225258 72 182 7.0 16.0 0.00 0.00 0.00 33 1012.9
20260503224755 72 206 9.0 13.0 0.00 0.00 0.00 33 1013.0
20260503224253 72 216 10.0 15.0 0.00 0.00 0.00 32 1013.2
20260503223750 72 204 7.0 12.0 0.00 0.00 0.00 34 1013.4
20260503223248 72 208 9.0 17.0 0.00 0.00 0.00 32 1013.3
20260503222743 72 197 6.0 12.0 0.00 0.00 0.00 33 1013.2
20260503222242 72 218 8.0 10.0 0.00 0.00 0.00 32 1013.5
20260503221740 72 181 9.0 13.0 0.00 0.00 0.00 33 1013.4
20260503221237 72 195 11.0 15.0 0.00 0.00 0.00 32 1013.5
20260503220733 72 196 7.0 17.0 0.00 0.00 0.00 33 1013.5
20260503220231 72 220 7.0 11.0 0.00 0.00 0.00 34 1013.7
20260503215727 72 196 7.0 13.0 0.00 0.00 0.00 34 1013.6
20260503215224 72 206 4.0 12.0 0.00 0.00 0.00 33 1013.9
20260503214722 73 221 12.0 14.0 0.00 0.00 0.00 31 1014.0
20260503214219 72 222 9.0 12.0 0.00 0.00 0.00 33 1014.0
20260503213717 72 190 7.0 13.0 0.00 0.00 0.00 33 1014.0
20260503213214 72 197 8.0 11.0 0.00 0.00 0.00 34 1014.1
20260503212711 72 210 7.0 14.0 0.00 0.00 0.00 33 1014.3
20260503212209 72 223 11.0 17.0 0.00 0.00 0.00 34 1014.1
20260503211706 72 214 6.0 13.0 0.00 0.00 0.00 35 1014.2
20260503211201 71 207 8.0 11.0 0.00 0.00 0.00 36 1014.5
20260503210658 71 231 11.0 15.0 0.00 0.00 0.00 34 1014.6
20260503210155 71 166 7.0 14.0 0.00 0.00 0.00 34 1014.6
20260503205650 71 216 14.0 16.0 0.00 0.00 0.00 33 1014.7
20260503205147 72 217 8.0 11.0 0.00 0.00 0.00 36 1014.7
20260503204643 72 199 6.0 16.0 0.00 0.00 0.00 36 1015.1
20260503204141 71 208 8.0 15.0 0.00 0.00 0.00 33 1014.9
20260503203638 72 218 6.0 13.0 0.00 0.00 0.00 33 1015.1
20260503203136 71 196 8.0 16.0 0.00 0.00 0.00 34 1015.3
20260503202633 71 173 4.0 11.0 0.00 0.00 0.00 34 1015.3
20260503202131 71 223 17.0 23.0 0.00 0.00 0.00 33 1015.4
20260503201628 71 226 15.0 17.0 0.00 0.00 0.00 34 1015.7
20260503201126 71 203 7.0 14.0 0.00 0.00 0.00 35 1015.7
20260503200621 70 240 12.0 16.0 0.00 0.00 0.00 36 1015.9
20260503200118 70 202 9.0 20.0 0.00 0.00 0.00 36 1016.1
20260503195615 70 238 13.0 23.0 0.00 0.00 0.00 35 1016.2
20260503195112 70 221 13.0 17.0 0.00 0.00 0.00 34 1016.2
20260503194609 70 222 14.0 21.0 0.00 0.00 0.00 34 1016.6
20260503194104 70 215 6.0 13.0 0.00 0.00 0.00 35 1016.8
20260503193601 70 208 13.0 24.0 0.00 0.00 0.00 34 1016.6
20260503193056 70 200 5.0 13.0 0.00 0.00 0.00 36 1016.8
20260503192552 69 222 19.0 20.0 0.00 0.00 0.00 35 1017.1
20260503192049 69 215 9.0 15.0 0.00 0.00 0.00 35 1016.8
20260503191545 69 191 7.0 17.0 0.00 0.00 0.00 36 1017.0
20260503191042 69 226 13.0 22.0 0.00 0.00 0.00 35 1017.1
20260503190539 68 232 13.0 22.0 0.00 0.00 0.00 36 1017.3
20260503190037 69 229 10.0 20.0 0.00 0.00 0.00 35 1017.4
20260503185533 69 223 14.0 23.0 0.00 0.00 0.00 36 1017.6
20260503185032 68 211 10.0 13.0 0.00 0.00 0.00 38 1017.6
20260503184529 68 225 17.0 19.0 0.00 0.00 0.00 36 1017.8
20260503184026 68 212 11.0 20.0 0.00 0.00 0.00 37 1017.8
20260503183522 69 215 12.0 18.0 0.00 0.00 0.00 36 1017.8
20260503183019 68 187 7.0 10.0 0.00 0.00 0.00 38 1018.0
20260503182518 68 228 14.0 16.0 0.00 0.00 0.00 39 1017.9
20260503182015 68 217 9.0 10.0 0.00 0.00 0.00 38 1018.3
20260503181512 67 212 4.0 9.0 0.00 0.00 0.00 42 1018.4
20260503181008 67 188 4.0 11.0 0.00 0.00 0.00 40 1018.5
20260503180506 67 215 8.0 18.0 0.00 0.00 0.00 38 1018.6
20260503180003 66 206 6.0 12.0 0.00 0.00 0.00 43 1018.6
20260503175501 66 221 6.0 17.0 0.00 0.00 0.00 40 1018.6
20260503174956 67 204 6.0 12.0 0.00 0.00 0.00 42 1018.7
20260503174455 66 218 8.0 16.0 0.00 0.00 0.00 43 1019.0
20260503173950 66 199 5.0 14.0 0.00 0.00 0.00 40 1019.2
20260503173446 66 195 7.0 12.0 0.00 0.00 0.00 41 1019.4
20260503172943 65 207 10.0 11.0 0.00 0.00 0.00 44 1019.4
20260503172440 65 204 7.0 12.0 0.00 0.00 0.00 41 1019.4
20260503171937 66 215 9.0 18.0 0.00 0.00 0.00 40 1019.7
20260503171433 65 216 6.0 11.0 0.00 0.00 0.00 41 1019.5
20260503170931 65 204 8.0 12.0 0.00 0.00 0.00 40 1019.5
20260503170427 65 207 6.0 13.0 0.00 0.00 0.00 40 1019.7
20260503150819 59 210 6.0 13.0 0.00 0.00 0.00 53 1020.8
20260503150315 59 198 6.0 13.0 0.00 0.00 0.00 53 1020.9
20260503140240 55 185 6.0 9.0 0.00 0.00 0.00 63 1020.7